Regional Weather Roundup
Issued by NWS Goodland, KS

Home | Current Version | Previous Version | Text Only | Print | Product List | Glossary Off
Versions: 1 2 3 4 5 6 7 8 9 10 11 12 13 14 15 16 17 18 19 20 21 22 23 24 25 26 27 28 29 30 31 32 33 34 35 36 37 38 39 40 41 42 43 44 45 46 47 48 49 50

280
ASUS43 KGLD 221308
RWRGLD

GOODLAND FORECAST AREA HOURLY WEATHER ROUNDUP
NATIONAL WEATHER SERVICE GOODLAND KS
700 AM MDT FRI MAY 22 2015

...OFFICIAL OBSERVATIONS...

CITY           SKY/WX    TMP DP  RH WIND       PRES   REMARKS
GOODLAND KS    LGT RAIN  47  46  97 SE14G23   30.09F
HILL CITY KS   LGT RAIN  50  48  93 SE10      30.15F FOG
IMPERIAL NEB   LGT RAIN  47  45  93 SE8       30.12S
MCCOOK NEB     LGT RAIN  48  46  93 SE8       30.14S FOG
AKRON CO       RAIN      45  45 100 SE15      30.06S FOG
BURLINGTON CO  CLOUDY    46  44  93 SE24G32   30.06S FOG
LIMON CO       LGT RAIN  44  43  96 SE13      30.03S
$$

...UNOFFICIAL OBSERVATIONS...

CITY           SKY/WX    TMP DP  RH WIND       PRES   REMARKS
GOVE KS          N/A     50  32  50 MISG        N/A
LENORA KS        N/A     48  32  54 MISG        N/A
SHARON SPRINGS   N/A     48  47  96 MISG        N/A
TRENTON NEB      N/A     48  32  54 SE9         N/A
KIT CARSON CO    N/A     46  44  92 MISG        N/A
YUMA CO          N/A     48  48 100 E14         N/A
$$



USA.gov is the U.S. government's official web portal to all federal, state and local government web resources and services.